Weather History for KPSK - March, 2013

Change the Weather History Date:

Sunday, March 10, 2013

  Actual Average (KBCB) Record (KBCB)
Temperature  
Mean Temperature 47 °F 40 °F  
Max Temperature 64 °F 51 °F 75 °F (1974)
Min Temperature 30 °F 28 °F 4 °F (1996)
Degree Days  
Heating Degree Days 18 25  
Month to date heating degree days 265  
Since 1 July heating degree days 4313  
Cooling Degree Days 0 0  
Month to date cooling degree days 0  
Year to date cooling degree days 0  
Moisture  
Dew Point 29 °F    
Average Humidity 54    
Maximum Humidity 93    
Minimum Humidity 24    
Precipitation  
Precipitation 0.00 in 0.11 in 0.95 in (1978)
Month to date precipitation 1.05  
Year to date precipitation 6.94  
Snow  
Snow 0.00 in - - ()
Month to date snowfall  
Since 1 July snowfall  
Snow Depth -    
Sea Level Pressure  
Sea Level Pressure 30.23 in    
Wind  
Wind Speed 2 mph (SSE)    
Max Wind Speed 13 mph    
Max Gust Speed 23 mph    
Visibility 10 miles    
Events      
T = Trace of Precipitation, MM = Missing Value Source: NWS Daily Summary

Daily Weather History Graph

Daily Weather History Graph

Search for Another Location

Airport or City:

Trip Planner

Search our weather history database for the weather conditions in past years. The results will help you decide how hot, cold, wet, or windy it might be!

Date:

Astronomy

Mar. 10, 2013 Rise Set
Actual Time 7:40 AM EDT 7:25 PM EDT
Civil Twilight 7:14 AM EDT 7:51 PM EDT
Nautical Twilight 6:44 AM EDT 8:21 PM EDT
Astronomical Twilight 6:14 AM EDT 8:52 PM EDT
Moon 6:38 AM EDT (3/10) 6:32 PM EDT (3/10)
Length of Visible Light 12h 36m
Length of Day
11h 44m
Waning Crescent, 2% of the Moon is Illuminated
Mar 10
Waning Crescent
Mar 11
New
Mar 19
First Quarter
Mar 27
Full
Apr 3
Last Quarter

Hourly Weather History & Observations

Time (EDT) Temp. Windchill Dew Point Humidity Pressure Visibility Wind Dir Wind Speed Gust Speed Precip Events Conditions
12:15 AM 37.4 °F - 28.4 °F 70% 30.29 in 10.0 mi Calm Calm - N/A   Clear
12:35 AM 37.4 °F - 28.4 °F 70% 30.28 in 10.0 mi Calm Calm - N/A   Clear
12:55 AM 35.6 °F - 26.6 °F 70% 30.28 in 10.0 mi Calm Calm - N/A   Clear
1:15 AM 35.6 °F - 28.4 °F 75% 30.28 in 10.0 mi Calm Calm - N/A   Clear
1:35 AM 37.4 °F - 26.6 °F 65% 30.28 in 10.0 mi Calm Calm - N/A   Clear
1:55 AM 33.8 °F - 28.4 °F 81% 30.28 in 10.0 mi Calm Calm - N/A   Clear
3:15 AM 33.8 °F - 28.4 °F 81% 30.27 in 10.0 mi Calm Calm - N/A   Scattered Clouds
3:35 AM 35.6 °F - 26.6 °F 70% 30.26 in 10.0 mi Calm Calm - N/A   Mostly Cloudy
3:55 AM 35.6 °F - 26.6 °F 70% 30.26 in 10.0 mi Calm Calm - N/A   Mostly Cloudy
4:15 AM 32.0 °F - 26.6 °F 80% 30.25 in 10.0 mi Calm Calm - N/A   Scattered Clouds
4:35 AM 33.8 °F - 28.4 °F 81% 30.25 in 10.0 mi Calm Calm - N/A   Clear
4:55 AM 35.6 °F - 26.6 °F 70% 30.25 in 10.0 mi Calm Calm - N/A   Clear
5:15 AM 35.6 °F - 26.6 °F 70% 30.26 in 10.0 mi Calm Calm - N/A   Clear
5:35 AM 30.2 °F - 24.8 °F 80% 30.26 in 10.0 mi Calm Calm - N/A   Clear
5:55 AM 30.2 °F - 28.4 °F 93% 30.26 in 10.0 mi Calm Calm - N/A   Clear
6:15 AM 30.2 °F - 26.6 °F 86% 30.26 in 10.0 mi Calm Calm - N/A   Clear
6:35 AM 32.0 °F - 26.6 °F 80% 30.26 in 10.0 mi Calm Calm - N/A   Scattered Clouds
6:55 AM 32.0 °F - 26.6 °F 80% 30.25 in 10.0 mi Calm Calm - N/A   Clear
7:15 AM 32.0 °F - 26.6 °F 80% 30.26 in 10.0 mi Calm Calm - N/A   Clear
8:35 AM 33.8 °F - 28.4 °F 81% 30.27 in 10.0 mi Calm Calm - N/A   Clear
8:55 AM 37.4 °F - 30.2 °F 75% 30.28 in 10.0 mi Calm Calm - N/A   Clear
9:15 AM 39.2 °F - 30.2 °F 70% 30.28 in 10.0 mi Calm Calm - N/A   Clear
9:35 AM 41.0 °F - 30.2 °F 65% 30.28 in 10.0 mi Calm Calm - N/A   Clear
9:55 AM 42.8 °F - 32.0 °F 66% 30.28 in 10.0 mi Calm Calm - N/A   Scattered Clouds
10:15 AM 42.8 °F - 33.8 °F 70% 30.29 in 10.0 mi Calm Calm - N/A   Mostly Cloudy
10:35 AM 44.6 °F - 33.8 °F 66% 30.29 in 10.0 mi Calm Calm - N/A   Overcast
10:55 AM 44.6 °F 43.1 °F 33.8 °F 66% 30.28 in 10.0 mi ENE 3.5 mph - N/A   Mostly Cloudy
11:15 AM 46.4 °F - 33.8 °F 62% 30.28 in 10.0 mi Calm Calm - N/A   Scattered Clouds
11:35 AM 48.2 °F - 30.2 °F 50% 30.28 in 10.0 mi Calm Calm - N/A   Clear
11:55 AM 48.2 °F - 33.8 °F 58% 30.27 in 10.0 mi Calm Calm - N/A   Clear
12:15 PM 53.6 °F - 32.0 °F 44% 30.26 in 10.0 mi East 3.5 mph - N/A   Clear
12:35 PM 55.4 °F - 32.0 °F 41% 30.25 in 10.0 mi East 5.8 mph - N/A   Clear
12:55 PM 57.2 °F - 30.2 °F 36% 30.24 in 10.0 mi ESE 8.1 mph - N/A   Clear
1:15 PM 59.0 °F - 30.2 °F 34% 30.23 in 10.0 mi SE 8.1 mph - N/A   Clear
1:35 PM 62.6 °F - 28.4 °F 27% 30.22 in 10.0 mi SSE 8.1 mph - N/A   Clear
1:55 PM 62.6 °F - 28.4 °F 27% 30.21 in 10.0 mi South 10.4 mph - N/A   Clear
2:15 PM 62.6 °F - 28.4 °F 27% 30.21 in 10.0 mi South 12.7 mph - N/A   Clear
2:35 PM 62.6 °F - 26.6 °F 26% 30.20 in 10.0 mi South 8.1 mph - N/A   Clear
2:55 PM 64.4 °F - 26.6 °F 24% 30.19 in 10.0 mi South 9.2 mph - N/A   Clear
3:15 PM 62.6 °F - 26.6 °F 26% 30.18 in 10.0 mi SSW 5.8 mph - N/A   Clear
3:35 PM 64.4 °F - 26.6 °F 24% 30.18 in 10.0 mi South 8.1 mph - N/A   Clear
3:55 PM 64.4 °F - 28.4 °F 26% 30.17 in 10.0 mi South 11.5 mph 23.0 mph N/A   Clear
4:15 PM 64.4 °F - 28.4 °F 26% 30.17 in 10.0 mi ESE 8.1 mph - N/A   Clear
4:35 PM 64.4 °F - 28.4 °F 26% 30.17 in 10.0 mi South 8.1 mph - N/A   Clear
4:55 PM 62.6 °F - 28.4 °F 27% 30.17 in 10.0 mi SSE 9.2 mph - N/A   Clear
5:15 PM 62.6 °F - 28.4 °F 27% 30.18 in 10.0 mi South 11.5 mph - N/A   Clear
5:35 PM 62.6 °F - 28.4 °F 27% 30.18 in 10.0 mi SSE 11.5 mph - N/A   Clear
5:55 PM 60.8 °F - 26.6 °F 27% 30.18 in 10.0 mi SSE 11.5 mph - N/A   Clear
6:15 PM 59.0 °F - 26.6 °F 29% 30.17 in 10.0 mi SSE 10.4 mph - N/A   Clear
6:35 PM 57.2 °F - 28.4 °F 33% 30.18 in 10.0 mi SSE 5.8 mph - N/A   Clear
6:55 PM 57.2 °F - 28.4 °F 33% 30.18 in 10.0 mi South 5.8 mph - N/A   Clear
7:15 PM 55.4 °F - 28.4 °F 36% 30.18 in 10.0 mi SSE 4.6 mph - N/A   Clear
7:35 PM 53.6 °F - 30.2 °F 41% 30.20 in 10.0 mi South 5.8 mph - N/A   Clear
7:55 PM 53.6 °F - 28.4 °F 38% 30.20 in 10.0 mi SSE 3.5 mph - N/A   Clear
8:15 PM 51.8 °F - 30.2 °F 44% 30.21 in 10.0 mi Calm Calm - N/A   Clear
8:35 PM 51.8 °F - 30.2 °F 44% 30.21 in 10.0 mi SSE 3.5 mph - N/A   Clear
8:55 PM 51.8 °F - 30.2 °F 44% 30.20 in 10.0 mi SE 4.6 mph - N/A   Clear
9:15 PM 51.8 °F - 32.0 °F 47% 30.21 in 10.0 mi SE 3.5 mph - N/A   Clear
9:35 PM 50.0 °F - 32.0 °F 50% 30.20 in 10.0 mi SSE 4.6 mph - N/A   Clear
9:55 PM 50.0 °F - 32.0 °F 50% 30.21 in 10.0 mi Calm Calm - N/A   Clear
10:15 PM 48.2 °F - 33.8 °F 58% 30.21 in 10.0 mi Calm Calm - N/A   Clear
10:35 PM 48.2 °F - 33.8 °F 58% 30.21 in 10.0 mi SSE 3.5 mph - N/A   Clear
10:55 PM 48.2 °F - 33.8 °F 58% 30.20 in 10.0 mi Calm Calm - N/A   Clear
11:15 PM 48.2 °F - 30.2 °F 50% 30.20 in 10.0 mi Calm Calm - N/A   Clear
11:35 PM 46.4 °F - 32.0 °F 57% 30.19 in 10.0 mi Calm Calm - N/A   Clear
11:55 PM 46.4 °F - 30.2 °F 53% 30.19 in 10.0 mi Calm Calm - N/A   Clear
12:15 AM 44.6 °F - 32.0 °F 61% 30.20 in 10.0 mi Calm Calm - N/A   Clear
12:35 AM 46.4 °F - 30.2 °F 53% 30.18 in 10.0 mi Calm Calm - N/A   Clear
12:55 AM 42.8 °F - 32.0 °F 66% 30.17 in 10.0 mi Calm Calm - N/A   Clear